IV3CVE-H1 Weather Reports


time (UTC)temp
C
wind
direction
speed
KPH
gust
KPH
rain 1hr
cm
rain 24hr
cm
rain mn
cm
humidity
%
barometer
mb
20260906080017 27 52 17.7 29.0 0.00 0.00 0.00 53 1020.5
20260906075016 27 63 19.3 30.6 0.00 0.00 0.00 54 1020.4
20260906074016 27 60 17.7 35.4 0.00 0.00 0.00 55 1020.2
20260906073016 27 51 9.7 29.0 0.00 0.00 0.00 57 1020.2
20260906072017 26 57 19.3 33.8 0.00 0.00 0.00 58 1020.2
20260906071015 26 44 14.5 22.5 0.00 0.00 0.00 62 1020.2
20260906070015 26 47 14.5 24.1 0.00 0.00 0.00 62 1020.1
20260906065017 25 46 16.1 29.0 0.00 0.00 0.00 62 1020.0
20260906064017 25 41 14.5 25.7 0.00 0.00 0.00 64 1020.0
20260906063016 25 50 16.1 33.8 0.00 0.00 0.00 65 1019.9
20260906062016 25 47 11.3 24.1 0.00 0.00 0.00 66 1019.9
20260906061016 24 44 11.3 19.3 0.00 0.00 0.00 70 1019.8
20260906060015 23 36 9.7 19.3 0.00 0.00 0.00 74 1019.7
20260906055035 23 31 9.7 17.7 0.00 0.00 0.00 76 1019.5
20260906054015 22 33 8.0 17.7 0.00 0.00 0.00 79 1019.5
20260906053017 22 27 9.7 17.7 0.00 0.00 0.00 81 1019.4
20260906052037 21 24 4.8 16.1 0.00 0.00 0.00 83 1019.4
20260906051017 20 32 8.0 12.9 0.00 0.00 0.00 85 1019.3
20260906050016 20 26 6.4 9.7 0.00 0.00 0.00 87 1019.1
20260906045016 20 29 6.4 11.3 0.00 0.00 0.00 87 1018.9
20260906044035 20 21 8.0 11.3 0.00 0.00 0.00 87 1018.9
20260906043016 20 22 4.8 11.3 0.00 0.00 0.00 86 1018.9
20260906042018 20 18 6.4 9.7 0.00 0.00 0.00 86 1018.8
20260906041016 20 21 8.0 9.7 0.00 0.00 0.00 85 1018.7
20260906040016 21 24 6.4 11.3 0.00 0.00 0.00 84 1018.7
20260906035015 21 22 4.8 9.7 0.00 0.00 0.00 84 1018.6
20260906034015 21 26 6.4 9.7 0.00 0.00 0.00 83 1018.6
20260906033037 21 22 6.4 11.3 0.00 0.00 0.00 83 1018.5
20260906032017 21 27 3.2 11.3 0.00 0.00 0.00 83 1018.4
20260906031016 21 35 6.4 9.7 0.00 0.00 0.00 83 1018.3
20260906030016 21 36 4.8 9.7 0.00 0.00 0.00 83 1018.3
20260906025036 21 29 3.2 11.3 0.00 0.00 0.00 84 1018.2
20260906024035 21 33 6.4 9.7 0.00 0.00 0.00 85 1018.2
20260906023015 21 22 3.2 11.3 0.00 0.00 0.00 86 1018.2
20260906022017 21 21 4.8 9.7 0.00 0.00 0.00 86 1018.2
20260906021017 21 22 6.4 9.7 0.00 0.00 0.00 86 1018.1
20260906020017 21 40 4.8 8.0 0.00 0.00 0.00 87 1018.1
20260906015016 21 34 4.8 8.0 0.00 0.00 0.00 87 1018.0
20260906014016 21 31 6.4 9.7 0.00 0.00 0.00 87 1018.0
20260906013016 21 28 6.4 9.7 0.00 0.00 0.00 87 1018.1
20260906012015 21 21 8.0 9.7 0.00 0.00 0.00 86 1018.0
20260906011015 21 20 6.4 9.7 0.00 0.00 0.00 86 1017.8
20260906010017 21 26 6.4 11.3 0.00 0.00 0.00 86 1017.8
20260906005017 21 21 8.0 11.3 0.00 0.00 0.00 86 1017.8
20260906004037 21 23 4.8 9.7 0.00 0.00 0.00 85 1017.9
20260906003015 21 33 4.8 9.7 0.00 0.00 0.00 84 1017.9
20260906002017 21 36 3.2 9.7 0.00 0.00 0.00 84 1017.9
20260906001037 21 24 4.8 11.3 0.00 0.00 0.00 84 1017.8
20260906000037 21 23 8.0 9.7 0.00 0.00 0.00 83 1017.8
20260905235016 21 31 4.8 11.3 0.00 0.00 0.00 83 1017.8
20260905234036 21 20 6.4 12.9 0.00 0.00 0.00 83 1017.7
20260905233015 22 28 8.0 12.9 0.00 0.00 0.00 83 1017.7
20260905232015 22 27 6.4 9.7 0.00 0.00 0.00 82 1017.7
20260905231015 22 17 6.4 11.3 0.00 0.00 0.00 82 1017.8
20260905230037 22 17 6.4 9.7 0.00 0.00 0.00 81 1017.7
20260905225017 22 16 3.2 11.3 0.00 0.00 0.00 81 1017.6
20260905224037 22 10 3.2 9.7 0.00 0.00 0.00 81 1017.4
20260905223016 22 20 8.0 9.7 0.00 0.00 0.00 81 1017.3
20260905222016 22 23 4.8 9.7 0.00 0.00 0.00 80 1017.3
20260905221016 23 15 3.2 9.7 0.00 0.00 0.00 79 1017.2
20260905220015 23 21 4.8 9.7 0.00 0.00 0.00 77 1017.1
20260905215015 23 29 6.4 9.7 0.00 0.00 0.00 77 1017.0
20260905214017 23 29 3.2 9.7 0.00 0.00 0.00 79 1017.0
20260905213037 23 40 8.0 12.9 0.00 0.00 0.00 80 1016.9
20260905212017 23 44 6.4 11.3 0.00 0.00 0.00 83 1016.9
20260905211016 23 48 3.2 9.7 0.00 0.00 0.00 87 1016.9
20260905210036 23 52 3.2 8.0 0.00 0.00 0.00 89 1016.9
20260905205015 23 45 4.8 8.0 0.00 0.00 0.00 90 1017.0
20260905204015 23 37 4.8 6.4 0.00 0.00 0.00 90 1017.0
20260905203017 23 33 4.8 8.0 0.00 0.00 0.00 90 1017.0
20260905202016 23 37 4.8 8.0 0.00 0.00 0.00 90 1016.8
20260905201016 23 36 3.2 8.0 0.00 0.00 0.00 89 1016.5
20260905200015 24 28 1.6 6.4 0.00 0.00 0.00 89 1016.5
20260905195015 24 28 4.8 8.0 0.00 0.00 0.00 89 1016.4
20260905194017 24 28 1.6 8.0 0.00 0.00 0.00 88 1016.3
20260905193017 24 28 3.2 9.7 0.00 0.00 0.00 88 1016.2
20260905192036 25 32 6.4 9.7 0.00 0.00 0.00 86 1016.1
20260905191016 25 57 1.6 6.4 0.00 0.00 0.00 85 1016.0
20260905190016 25 68 4.8 8.0 0.00 0.00 0.00 86 1015.9
20260905185016 25 76 4.8 8.0 0.00 0.00 0.00 84 1015.7
20260905184015 25 111 3.2 4.8 0.00 0.00 0.00 82 1015.4
20260905183015 26 111 1.6 3.2 0.00 0.00 0.00 79 1015.2
20260905182017 26 111 3.2 4.8 0.00 0.00 0.00 77 1015.0
20260905181016 26 116 3.2 6.4 0.00 0.00 0.00 74 1014.9
20260905180016 27 133 3.2 4.8 0.00 0.00 0.00 71 1014.9
20260905175016 28 86 0.0 1.6 0.00 0.00 0.00 70 1014.6
20260905174015 28 86 0.0 1.6 0.00 0.00 0.00 69 1014.5
20260905173015 29 0.0 0.0 0.00 0.00 0.00 64 1014.4
20260905172015 30 87 0.0 1.6 0.00 0.00 0.00 62 1014.3
20260905171037 30 87 0.0 3.2 0.00 0.00 0.00 58 1014.2
20260905170017 30 87 1.6 3.2 0.00 0.00 0.00 57 1014.1
20260905165016 30 87 1.6 3.2 0.00 0.00 0.00 56 1014.0
20260905164016 31 87 1.6 4.8 0.00 0.00 0.00 55 1013.9
20260905163016 31 87 1.6 6.4 0.00 0.00 0.00 55 1013.9
20260905162017 31 76 3.2 6.4 0.00 0.00 0.00 53 1013.7
20260905161016 31 76 1.6 3.2 0.00 0.00 0.00 51 1013.8
20260905160016 32 76 1.6 8.0 0.00 0.00 0.00 50 1013.8
20260905155017 32 74 1.6 6.4 0.00 0.00 0.00 48 1013.8
20260905154016 32 65 3.2 9.7 0.00 0.00 0.00 48 1013.7
20260905153015 32 89 1.6 8.0 0.00 0.00 0.00 46 1013.5
20260905152018 33 85 3.2 6.4 0.00 0.00 0.00 45 1013.5
20260905151017 33 81 1.6 4.8 0.00 0.00 0.00 44 1013.5
20260905150017 33 82 1.6 8.0 0.00 0.00 0.00 43 1013.6
20260905145036 33 84 4.8 11.3 0.00 0.00 0.00 42 1013.6
20260905144016 33 199 3.2 6.4 0.00 0.00 0.00 42 1013.5
20260905143015 33 193 3.2 4.8 0.00 0.00 0.00 41 1013.5
20260905142015 33 68 1.6 8.0 0.00 0.00 0.00 42 1013.6
20260905141035 33 46 3.2 11.3 0.00 0.00 0.00 44 1013.7
20260905140017 32 80 3.2 8.0 0.00 0.00 0.00 44 1013.8
20260905135017 32 84 1.6 4.8 0.00 0.00 0.00 42 1013.7
20260905134016 32 84 1.6 8.0 0.00 0.00 0.00 44 1013.8
20260905133016 32 140 4.8 8.0 0.00 0.00 0.00 44 1013.8
20260905132016 32 101 6.4 14.5 0.00 0.00 0.00 46 1013.9
20260905131015 32 77 6.4 12.9 0.00 0.00 0.00 46 1013.8
20260905130015 33 61 4.8 8.0 0.00 0.00 0.00 46 1013.9
20260905125015 32 27 3.2 6.4 0.00 0.00 0.00 44 1014.1
20260905124017 32 73 1.6 11.3 0.00 0.00 0.00 45 1014.2
20260905123017 32 83 6.4 11.3 0.00 0.00 0.00 47 1014.2
20260905122017 32 117 3.2 6.4 0.00 0.00 0.00 46 1014.2
20260905121035 31 75 3.2 12.9 0.00 0.00 0.00 48 1014.3
20260905120017 32 106 1.6 6.4 0.00 0.00 0.00 51 1014.3
20260905115017 32 50 6.4 11.3 0.00 0.00 0.00 51 1014.4
20260905114016 31 62 3.2 6.4 0.00 0.00 0.00 52 1014.5
20260905113016 32 88 4.8 11.3 0.00 0.00 0.00 53 1014.5
20260905112036 32 290 1.6 9.7 0.00 0.00 0.00 52 1014.5
20260905111016 31 342 4.8 11.3 0.00 0.00 0.00 56 1014.6
20260905110015 31 67 1.6 9.7 0.00 0.00 0.00 53 1014.6
20260905105015 31 47 3.2 9.7 0.00 0.00 0.00 52 1014.7
20260905104018 30 75 1.6 8.0 0.00 0.00 0.00 54 1014.6
20260905103037 30 57 3.2 11.3 0.00 0.00 0.00 56 1014.7
20260905102017 30 344 4.8 11.3 0.00 0.00 0.00 58 1014.8
20260905101016 30 54 4.8 11.3 0.00 0.00 0.00 62 1014.9
20260905100017 29 49 4.8 8.0 0.00 0.00 0.00 63 1014.8
20260905095016 29 28 4.8 8.0 0.00 0.00 0.00 64 1014.8
20260905094015 29 35 3.2 6.4 0.00 0.00 0.00 64 1014.8
20260905093015 29 25 1.6 6.4 0.00 0.00 0.00 63 1014.9
20260905092018 28 32 3.2 8.0 0.00 0.00 0.00 64 1014.8
20260905091037 28 23 4.8 8.0 0.00 0.00 0.00 65 1014.8
20260905090016 28 21 1.6 8.0 0.00 0.00 0.00 65 1014.7
20260905085016 28 38 4.8 8.0 0.00 0.00 0.00 67 1014.6
20260905084016 28 20 6.4 9.7 0.00 0.00 0.00 68 1014.6
20260905083015 28 35 4.8 8.0 0.00 0.00 0.00 68 1014.5
20260905082015 28 43 6.4 9.7 0.00 0.00 0.00 68 1014.4
20260905081036 28 30 4.8 11.3 0.00 0.00 0.00 69 1014.4